Погода в Мишен-Бич

Австралия     17°52′03″S   146°06′23″E
темп.,
°C
ветер,
м/с
пор.,
м/с
влажн.,
%
обл.,
%
осадки,
мм/ч
давл.,
гПа
погр.,
м
9 марта, вт
вт901:00+22юв019643 1.3 101324
04:00+21юз119772 1.4 101223
07:00+22ююз119755 0.6 101426
10:00+24юв259457 2.5 1015528
13:00+25вюв249395 2.1 1013595
16:00+27вюв237060 2.7 10121154
19:00+22ююв119015 0.1 101325
22:00+21юз119311 0.1 101626
10 марта, ср
ср1001:00+20зюз129621 0.0 101426
04:00+20юз129437 0.0 101443
07:00+21юз129430 0.0 101554
10:00+27ююв237035 0.0 1015884
13:00+29юв336386 0.1 10131135
16:00+28юв346972 0.1 1012899
19:00+23ююв128815 0.0 101453
22:00+22юз119216 0.1 101637
11 марта, чт
чт1101:00+22юз129392 0.1 101567
04:00+20юз129897 0.2 101341
07:00+21юз119679 0.1 101542
10:00+27юв236665 0.2 10161087
13:00+29вюв34540 0.0 10141313
16:00+28вюв34710 0.1 10131038
19:00+23ююв129719 1.3 101473
22:00+22ю119719 1.8 101542
12 марта, пт
пт1201:00+22ю129845 0.7 101451
04:00+22ююз129838 1.1 101358
07:00+22ююз139720 0.3 1015135
10:00+27юв367718 0.8 10151013
13:00+29юв356330 0.1 10131193
16:00+28юв347029 0.2 10121068
19:00+22ю12934 0.0 101456
22:00+22ююз119612 0.2 101534
13 марта, сб
сб1301:00+22юз119623 0.3 101424
04:00+22ююз119732 0.6 101379
07:00+22юз129620 0.1 101333
10:00+26юв238323 0.4 1014654
13:00+29вюв356451 0.8 10121347
16:00+28вюв347437 1.1 10101037
19:00+23ююв119414 0.6 101223
22:00+22з119617 0.8 101424